CYGNUS NG-10 (43704 NORAD) Tracking and Keplerian Element Data

This shows tracking and keplerian element data for the satellite.

Feedback or suggestion? Click here.




ElementValue
Catalog43704
NameCYGNUS NG-10
Epoch Orbit1555
Epoch Day55.89210234
Epoch Year2019
RAAN197.255
Inclination51.6389
Eccentricity0.0011727
Argument of Perigee300.9932
Mean Anonmoly58.9921
Mean Motion15.87942133
Decay Rate0.00026036
L11 43704U 18092A 19055.89210234 .00026036 00000-0 95990-4 0 9990
L22 43704 51.6389 197.2550 0011727 300.9932 58.9921 15.87942133 15558



Live tracking and technical data element details for CYGNUS NG-10 (NORAD 43704). CYGNUS NG-10 can be tracked NOW for your location showing map with azimuth and elevation plus other details from your city location.







IsCatalogInMostPopularTable: catalog: 43704, numindb: 446
Update: records affected: 1



GetName: 43704 CYGNUS NG-10

Hit Count: updated at: Sat, 17 May 2025 08:31:35 GMT